Content
SEND FEEDBACK

Daily
Averages
Monthly
Summary
Canada

MONTREAL, QUEBEC


Home > North America > Canada > Quebec
Elevation: 118 feet     Latitude: 45 28N     Longitude: 073 45W

WEATHER
 
SELECT A DAY
Number of Records: 197,862;   Date Range: 1/1/95 - 7/9/14
 
SHARE

PRINT THIS DATA

[ ← Previous Day ]
WEATHER ALMANAC - JULY 17, 2013
[ Next Day → ]
[ °C ]   °F
We're sorry. There is no daily almanac available for Montreal, Quebec on July 17, 2013.
WEATHER BY HOUR - JULY 17, 2013
[ °C ]   °F
Local TimeTemperatureDewpointHumidityBarometerVisibilityWind DirectionWind SpeedGust SpeedPrecipitationEventsConditions
1:00 AM78.8 °F71.6 °F78 %30.13 in15.0 miSSW (210°)8.1 mphMostly Cloudy
2:00 AM77.0 °F71.0 °F76 %30.12 in15.0 miSSW (210°)9.2 mphScattered Clouds
2:00 AM77.0 °F69.8 °F78 %30.12 in15.0 miSSW (210°)9.2 mphPartly Cloudy
3:00 AM77.0 °F69.8 °F78 %30.12 in15.0 miSW (230°)4.6 mphPartly Cloudy
4:00 AM77.0 °F69.8 °F78 %30.12 in15.0 miSW (230°)6.9 mphMostly Cloudy
5:00 AM77.0 °F68.0 °F74 %30.11 in15.0 miSW (220°)8.1 mphMostly Cloudy
6:00 AM77.0 °F68.0 °F74 %30.12 in15.0 miWSW (240°)9.2 mphMostly Cloudy
7:00 AM77.0 °F69.8 °F78 %30.12 in15.0 miSW (220°)10.4 mphMostly Cloudy
8:00 AM78.8 °F69.8 °F74 %30.12 in15.0 miSW (220°)12.7 mphMostly Cloudy
8:00 AM78.0 °F69.0 °F68 %30.12 in15.0 miSW (220°)11.5 mphMostly Cloudy
9:00 AM78.8 °F69.8 °F74 %30.10 in15.0 miSW (220°)15.0 mphPartly Cloudy
10:00 AM82.4 °F71.6 °F70 %30.09 in15.0 miSSW (210°)15.0 mphPartly Cloudy
11:00 AM84.2 °F71.6 °F66 %30.08 in15.0 miSSW (210°)13.8 mphPartly Cloudy
12:00 PM86.0 °F71.6 °F62 %30.07 in15.0 miSSW (210°)16.1 mphPartly Cloudy
1:00 PM87.8 °F73.4 °F62 %30.06 in15.0 miSW (220°)20.7 mphPartly Cloudy
2:00 PM89.0 °F74.0 °F53 %30.03 in15.0 miSW (220°)19.6 mphScattered Clouds
2:00 PM89.6 °F73.4 °F59 %30.02 in15.0 miSW (220°)18.4 mph25.3 mphScattered Clouds
3:00 PM91.4 °F75.2 °F59 %29.98 in15.0 miSSW (210°)18.4 mph24.2 mphScattered Clouds
4:00 PM87.8 °F73.4 °F62 %29.96 in15.0 miSW (220°)19.6 mphMostly Cloudy
4:27 PM87.8 °F73.4 °F62 %29.95 in15.0 miSW (230°)13.8 mph20.7 mphThunderstormThunderstorm
4:41 PM87.8 °F73.4 °F62 %29.96 in10.0 miWSW (240°)13.8 mphRain-ThunderstormLight Thunderstorms and Rain
5:00 PM84.2 °F75.2 °F74 %29.97 in2.0 miWSW (250°)21.9 mph36.8 mphRain-ThunderstormThunderstorms and Rain
5:08 PM78.8 °F73.4 °F83 %30.00 in0.8 miNW (310°)25.3 mph36.8 mphRain-ThunderstormHeavy Thunderstorms and Rain
5:23 PM73.4 °F71.6 °F94 %29.97 in10.0 miWSW (250°)15.0 mph50.6 mphRain-ThunderstormLight Thunderstorms and Rain
6:00 PM75.2 °F73.4 °F94 %29.98 in10.0 miWest (280°)10.4 mph19.6 mphRainLight Rain Showers
6:23 PM78.8 °F75.2 °F89 %29.96 in15.0 miWest (260°)5.8 mphOvercast
7:00 PM77.0 °F73.4 °F89 %29.98 in12.0 miWSW (250°)13.8 mphOvercast
7:49 PM77.0 °F73.4 °F89 %29.97 in12.0 miWNW (300°)9.2 mphRainLight Rain Showers
8:00 PM78.0 °F73.0 °F82 %29.97 in6.0 miWest (280°)8.1 mphRainHeavy Rain Showers
8:00 PM77.0 °F73.4 °F89 %29.96 in6.0 miWNW (290°)8.1 mphRainLight Rain Showers
8:53 PM75.2 °F69.8 °F83 %29.99 in15.0 miWNW (300°)5.8 mphMostly Cloudy
9:00 PM75.2 °F69.8 °F83 %29.97 in15.0 miWest (270°)2.3 mphMostly Cloudy
10:00 PM75.2 °F69.8 °F83 %30.00 in15.0 miWest (270°)5.8 mphMostly Cloudy
11:00 PM73.4 °F69.8 °F88 %30.00 in15.0 miWNW (290°)5.8 mphPartly Cloudy
Hourly data recorded from CYUL, located miles away from Montreal, Quebec







STORIES FROM OUR PARTNERS